Weather in Zykovo

Russia / Arkhangel'skaya Oblast'     61°19′11″N   43°43′17″E
temp.,
°C
wind,
m/s
gust,
m/s
humid.,
%
clouds,
%
prec.,
mm/h
press.,
hPa
HPBL,
m
28 november, sun
sun2800:00−5ene41096100 1.3 1007394
03:00−4ene4996100 3.6 1004342
06:00−3ene3797100 2.7 1001315
09:00−2e2698100 4.6 1000292
12:000sse1498100 0.9 1000278
15:00−2se1399100 1.6 1000115
18:00−4ene1198100 0.6 100036
21:00−2e1699100 2.5 999434
29 november, mon
mon2900:00−3wnw2898100 3.2 1001474
03:00−8wnw139776 3.8 100573
06:00−14w1199100 0.1 100913
09:00−16nw1199100 0.1 101110
12:00−13n1295100 0.0 101393
15:00−16ne119860 0.0 101310
18:00−16ne2797100 0.0 1013147
21:00−16ene3109699 0.0 1011196
30 november, tue
tue3000:00−14ene41395100 0.0 1008266
03:00−13ene51494100 0.0 1004353
06:00−11ene61792100 0.1 998446
09:00−9ene61693100 0.4 993514
12:00−8ene61593100 0.6 988498
15:00−8ene51493100 1.0 983513
18:00−7ne51494100 1.4 979489
21:00−7ne51295100 4.9 976429
1 december, wed
wed100:00−6ne3896100 2.1 976319
03:00−5nne2497100 2.6 976144
06:00−4n1198100 0.1 97847
09:00−4w1298100 0.5 980107
12:00−5ssw3795100 1.1 982430
15:00−7ssw3896100 1.9 984494
18:00−7ssw2696100 0.9 986435
21:00−7ssw259697 2.0 986332
2 december, thu
thu200:00−10ssw129985 0.2 98735
03:00−11wsw269790 0.3 987135
06:00−11sw289694 0.1 987265
09:00−10wsw41095100 0.3 988438
12:00−10wsw41194100 0.1 990491
15:00−11wsw41193100 0.3 992455
18:00−12wsw4119498 0.1 994428
21:00−13sw41195100 0.2 995368